Location: Newark
(50.1751°N, 5.6239°W)
Time: 03:23:51
(UTC+00:00)

ISS - Pass Details

Date: 28 September 2021
Orbit: 417 x 423 km, 51.6° (Epoch: 20 October)

Event Time Altitude Azimuth Distance (km) Brightness Sun altitude
Rises 18:56:13 0° 279° (W) 2,364 2.6 -8.7°
Reaches altitude 10° 18:58:19 10° 281° (WNW) 1,501 0.7 -9.0°
Maximum altitude 19:01:41 69° 6° (N) 454 -3.6 -9.6°
Enters shadow 19:04:24 15° 89° (E) 1,244 -2.0 -10.0°
